Temperature
10 10 10 11 11 12 12 13 13 14 15 15 14 14 14 14 15 15 16 16 15 16 15 15 15 16 16 15 16 16 16 16 16 16 16 16 16 16
9 9 9 10 11 11 12 12 13 13 14 15 14 14 14 14 14 15 15 15 15 15 15 15 15 15 16 15 15 15 15 15 16 16 16 16 16 16
9 9 9 9 10 10 11 11 12 12 13 14 14 13 13 13 14 14 15 15 15 15 15 15 15 15 15 15 16 15 15 15 16 16 16 16 16 16
9 9 9 9 9 9 10 10 11 11 12 12 13 13 13 13 13 14 14 15 15 15 15 15 15 15 15 15 15 15 15 15 15 16 16 16 16 16
8 8 8 8 8 9 9 10 10 11 11 12 12 13 13 13 13 14 14 15 15 15 15 15 15 15 15 15 15 15 15 15 15 15 16 16 16 16
8 8 8 8 8 8 8 9 9 10 10 11 12 12 13 13 13 13 13 14 14 15 15 15 15 15 15 15 15 15 15 15 15 15 16 16 16 16
8 8 8 8 8 8 8 9 9 9 10 11 12 12 13 13 13 13 13 13 13 14 14 15 15 14 15 15 15 15 15 15 15 15 15 15 16 16
8 8 8 8 8 8 8 8 8 8 9 10 11 12 12 12 12 13 13 13 13 13 13 14 14 14 14 14 15 15 15 15 15 15 15 15 15 15
7 8 8 9 8 8 8 8 8 8 8 8 9 10 11 11 12 12 12 12 13 13 13 13 13 14 14 14 15 15 15 15 15 15 15 15 15 15
7 7 8 8 8 8 7 8 7 7 8 8 8 9 9 10 10 11 11 12 12 12 13 12 13 13 13 14 14 14 15 15 15 15 15 15 15 15
8 8 7 7 7 7 7 7 7 7 8 8 8 8 8 9 9 10 11 11 11 12 12 12 12 12 12 13 13 14 14 14 15 15 15 15 15 14
8 8 7 7 7 7 6 6 6 7 7 8 8 8 8 9 9 9 10 11 11 11 11 12 12 12 11 12 12 12 13 13 14 14 14 14 14 14
7 8 8 7 7 7 6 6 6 6 7 7 7 8 8 8 8 9 9 10 11 11 11 11 12 12 12 11 11 12 12 12 12 13 13 13 13 13
7 7 7 7 6 6 6 6 6 6 6 6 7 8 8 9 9 9 10 10 10 11 11 12 12 12 12 11 11 11 11 11 12 12 12 12 12 12
7 7 7 7 6 6 6 6 6 6 5 6 7 8 8 9 9 9 9 10 10 10 11 11 11 12 12 12 11 11 11 11 11 11 12 12 12 12
7 7 7 7 6 6 6 6 6 6 6 6 6 7 8 8 9 9 10 10 10 10 10 11 11 11 11 11 12 12 11 11 11 11 11 11 11 12
7 6 6 6 6 6 6 6 6 6 5 6 6 6 7 8 8 9 9 10 10 10 10 10 10 10 11 11 11 11 11 11 11 11 11 11 11 11
7 6 6 7 7 7 6 6 6 6 6 6 6 6 7 7 8 8 9 9 10 10 10 10 10 10 10 10 11 11 11 11 11 11 11 11 11 11
7 7 7 7 7 7 7 6 6 6 6 6 6 6 6 7 8 8 8 9 9 10 9 9 10 10 10 10 10 10 11 11 11 11 11 10 10 10
7 7 7 7 7 7 7 7 6 6 6 6 6 6 7 7 7 8 8 9 9 9 9 9 9 10 10 10 10 10 10 11 11 11 10 10 10 10
7 7 8 8 8 8 7 7 7 6 6 6 6 6 7 7 7 8 9 9 9 9 9 9 9 10 10 10 10 10 10 10 10 10 10 10 10 10
7 7 8 8 8 8 7 7 7 7 7 7 6 7 7 7 8 8 9 9 9 9 9 9 9 9 9 9 10 10 10 10 10 10 10 10 10 10
7 7 7 7 8 7 8 7 7 7 7 7 7 7 7 7 8 8 9 9 9 9 9 9 9 9 9 9 10 10 10 10 9 9 9 9 10 11
Wind_Speed
10 10 10 10 10 10 10 10 11 12 10 6 4 1 3 4 3 6 8 12 17 18 19 21 23 26 28 29 30 30 31 31 31 31 32 32 32 31
8 9 9 10 9 10 10 11 11 12 12 9 5 4 5 6 3 5 7 8 13 15 16 18 20 23 26 29 30 30 31 31 31 31 31 31 31 30
10 11 11 11 10 10 10 11 12 12 13 11 8 5 5 7 5 5 5 6 8 13 14 15 16 18 21 25 28 30 30 30 30 30 30 29 29 28
12 12 12 10 11 11 11 12 12 11 13 14 11 9 7 6 6 5 4 4 5 9 12 12 13 14 17 21 25 27 28 28 28 28 28 27 27 26
13 13 13 12 12 12 12 12 11 12 12 13 13 10 8 7 6 5 4 3 3 6 9 9 9 11 13 17 20 23 25 25 26 26 26 26 25 25
13 14 14 14 13 13 12 13 12 13 12 12 13 11 10 8 7 6 5 4 4 4 5 6 7 8 10 12 16 19 22 23 23 23 23 23 22 22
13 14 14 14 12 11 12 12 12 12 12 12 12 12 11 9 8 7 7 5 5 4 5 6 6 6 7 9 11 15 18 20 20 21 21 21 20 19
14 14 13 14 15 17 18 17 16 14 13 12 12 12 11 11 9 8 7 7 5 6 6 5 6 6 5 6 8 12 15 17 18 19 19 19 18 18
15 14 13 13 12 14 17 21 21 21 19 16 15 14 12 11 11 11 10 9 7 7 7 5 5 5 4 5 8 10 12 14 16 17 17 18 18 18
15 15 15 15 14 13 14 15 16 17 18 18 17 17 15 12 11 12 11 10 7 6 7 5 5 4 4 4 6 8 11 13 15 17 18 18 18 18
15 15 15 15 12 9 14 16 16 15 15 15 14 14 12 11 9 10 11 9 8 6 6 5 5 4 3 3 4 6 9 12 15 17 19 20 21 19
13 13 14 15 12 8 14 15 17 16 15 15 16 17 18 18 15 15 14 12 9 7 7 7 7 6 4 2 2 4 6 9 15 18 21 24 25 16
12 11 10 9 12 13 14 15 15 14 14 15 15 15 16 16 17 18 17 14 12 8 9 9 7 7 6 4 2 2 4 5 8 11 19 22 19 14
12 12 9 4 9 12 13 14 13 12 13 14 14 15 15 15 15 17 17 17 14 11 12 13 8 9 8 7 5 3 3 4 6 7 9 11 10 11
12 12 12 10 10 13 17 17 14 13 14 15 15 15 15 14 13 13 16 15 16 13 13 14 10 10 9 8 9 7 4 3 5 7 8 7 8 10
12 12 14 16 15 15 12 12 13 14 14 15 15 15 14 13 14 14 14 14 13 11 12 14 12 12 9 8 11 11 9 7 7 7 8 8 8 10
8 10 11 11 11 11 11 11 12 13 15 15 14 14 14 14 14 14 14 14 14 13 11 8 7 6 5 7 10 12 11 9 9 9 8 7 7 8
8 11 12 11 11 11 10 10 11 12 13 14 14 14 15 15 14 14 14 15 15 14 12 10 8 5 3 2 2 11 11 10 11 11 9 9 9 9
10 12 12 12 11 10 10 9 10 11 11 13 14 14 15 15 14 14 15 15 15 14 13 12 12 11 10 8 3 4 10 11 12 10 10 8 10 10
11 12 12 11 10 10 9 9 9 9 10 11 12 13 14 14 14 14 15 17 16 14 14 14 14 14 13 11 8 6 9 12 12 12 10 7 6 10
10 11 11 10 10 9 9 8 8 8 9 10 11 13 13 14 14 15 15 17 16 15 16 15 13 12 7 8 8 8 9 8 8 10 13 11 10 11
10 10 10 10 9 8 8 8 8 8 9 9 10 11 12 12 14 16 15 15 15 15 15 13 13 12 10 11 12 11 10 8 5 7 7 3 8 11
9 9 9 9 8 7 7 8 8 8 8 8 9 10 11 11 12 13 15 15 15 15 14 14 12 11 10 10 11 11 14 14 10 9 6 5 7 12
Wind_Direction
272 262 261 270 265 266 268 268 273 278 274 260 252 270 317 304 294 253 237 217 215 217 220 221 220 217 214 211 212 213 214 214 215 217 218 218 217 219
268 278 277 272 272 268 266 265 264 267 274 273 259 273 314 303 290 274 247 213 210 211 217 220 219 216 213 210 210 211 211 212 213 216 216 215 216 218
264 261 260 269 272 272 265 261 260 260 264 267 262 255 270 286 291 282 255 225 204 202 208 214 217 217 215 211 208 207 208 210 212 213 213 213 215 217
260 261 260 258 256 262 267 266 264 266 266 269 268 260 250 259 275 277 261 231 207 189 197 205 211 215 215 212 207 205 205 207 208 209 209 211 213 216
262 260 258 258 258 259 259 262 262 258 256 261 262 259 253 247 250 251 242 225 200 177 182 188 200 209 213 210 206 203 202 202 204 205 206 209 211 214
264 260 258 254 253 255 256 256 260 264 261 258 260 256 247 237 235 236 225 204 191 172 158 157 166 183 198 200 201 199 198 198 199 201 203 205 207 210
266 261 257 254 257 258 262 260 256 253 255 252 252 252 247 238 234 228 223 201 188 182 169 165 162 167 175 184 192 194 192 192 193 195 196 197 199 200
270 266 260 247 239 235 248 260 267 264 260 261 256 252 252 249 243 237 224 207 202 188 179 171 173 165 163 169 168 181 187 186 186 187 189 190 190 190
269 267 264 258 241 244 233 232 244 249 255 262 265 266 262 252 255 245 231 225 217 183 178 169 166 151 130 111 140 170 184 185 182 182 182 182 182 180
263 261 262 265 261 257 258 249 243 238 234 237 247 258 264 274 268 260 256 238 227 196 179 168 161 145 127 115 131 166 180 181 179 176 175 172 169 165
264 262 261 262 258 244 257 259 257 252 241 238 247 255 274 287 284 270 250 230 219 200 190 171 149 131 128 120 104 143 168 175 174 169 165 160 154 147
268 264 253 249 262 240 253 255 254 251 252 241 231 239 247 249 243 247 251 237 221 200 185 173 155 150 139 119 113 127 140 154 160 159 157 154 150 144
274 273 271 215 224 232 242 254 256 261 254 249 246 240 234 234 234 229 230 238 228 212 182 177 166 167 155 143 129 104 125 137 134 143 152 154 157 155
272 274 278 229 231 237 241 248 247 251 251 248 244 241 237 231 226 226 222 225 233 223 189 182 177 174 163 155 149 136 116 126 134 134 136 134 126 134
267 281 289 279 263 253 242 237 235 237 238 239 240 239 237 235 231 223 224 222 226 222 200 192 186 179 178 169 158 156 147 136 140 143 146 152 151 149
259 262 247 245 247 257 255 231 230 233 232 234 237 238 238 233 228 225 218 211 210 210 201 195 191 183 187 176 163 164 163 156 154 153 152 156 166 173
294 277 272 264 253 245 241 238 232 228 229 233 234 235 234 231 227 221 219 209 205 198 186 184 180 170 179 173 168 165 161 158 159 157 155 156 170 177
267 265 266 264 262 258 252 243 235 231 229 229 230 230 228 226 223 220 214 210 206 197 185 173 157 136 108 41 166 165 163 161 160 164 167 163 169 179
244 257 261 261 260 259 256 252 243 235 229 226 226 225 223 223 221 217 213 208 205 198 184 175 175 173 175 175 177 190 166 160 160 168 178 177 173 169
243 254 259 259 256 253 250 249 246 239 229 224 224 223 221 219 218 215 212 206 202 194 185 182 185 187 188 177 161 172 175 164 167 169 173 171 132 109
260 261 264 262 254 249 246 241 239 236 232 226 224 221 219 217 217 215 210 203 200 194 188 188 188 175 158 145 145 153 165 163 169 172 166 161 159 166
268 267 269 267 260 251 244 236 231 230 230 226 223 221 218 217 217 214 207 200 199 196 191 179 167 166 170 176 169 157 155 155 117 114 114 111 181 184
267 267 269 269 261 249 244 234 227 225 224 226 222 218 215 214 214 211 207 201 197 192 182 171 169 173 178 176 164 156 158 161 161 163 156 56 73 103
Height
1504 1503 1502 1503 1503 1502 1502 1502 1502 1499 1497 1496 1496 1495 1495 1495 1495 1496 1497 1499 1502 1504 1506 1509 1512 1516 1520 1524 1529 1535 1541 1546 1552 1557 1561 1566 1570 1574
1499 1498 1497 1498 1498 1498 1497 1497 1497 1496 1494 1493 1493 1492 1491 1492 1492 1492 1493 1494 1496 1499 1501 1503 1506 1510 1513 1518 1523 1528 1533 1539 1544 1550 1555 1560 1564 1568
1494 1494 1493 1492 1493 1493 1493 1492 1492 1492 1490 1489 1489 1489 1488 1488 1488 1488 1489 1490 1492 1494 1496 1498 1501 1504 1508 1512 1517 1522 1527 1532 1538 1543 1548 1554 1558 1562
1489 1489 1488 1488 1487 1487 1487 1487 1487 1486 1486 1485 1485 1485 1484 1484 1484 1484 1485 1486 1488 1489 1491 1494 1496 1499 1503 1507 1511 1516 1521 1526 1531 1537 1542 1547 1552 1556
1484 1483 1483 1482 1482 1482 1481 1481 1481 1481 1481 1481 1480 1480 1480 1480 1480 1481 1481 1482 1483 1485 1487 1489 1492 1495 1498 1502 1506 1511 1516 1521 1526 1531 1536 1541 1545 1550
1478 1477 1477 1476 1476 1476 1476 1475 1476 1476 1476 1475 1475 1475 1476 1476 1476 1476 1477 1478 1479 1481 1483 1485 1488 1491 1494 1498 1502 1507 1511 1516 1521 1526 1530 1535 1540 1544
1471 1471 1470 1470 1469 1470 1471 1471 1471 1471 1471 1470 1470 1470 1471 1471 1472 1472 1473 1474 1475 1476 1479 1481 1484 1487 1490 1494 1498 1502 1507 1511 1516 1521 1525 1530 1534 1538
1465 1464 1464 1463 1462 1462 1462 1463 1464 1465 1465 1466 1465 1465 1466 1467 1468 1468 1469 1470 1471 1473 1475 1477 1480 1483 1486 1490 1493 1498 1502 1507 1511 1516 1520 1525 1529 1533
1458 1458 1458 1458 1457 1456 1455 1455 1456 1456 1458 1459 1459 1460 1461 1463 1463 1464 1465 1465 1467 1468 1471 1473 1476 1479 1482 1485 1489 1494 1498 1502 1507 1511 1516 1520 1524 1529
1451 1451 1450 1450 1450 1450 1450 1449 1449 1449 1450 1451 1452 1453 1456 1457 1458 1459 1460 1461 1463 1464 1467 1469 1472 1475 1478 1481 1485 1489 1493 1498 1502 1507 1511 1516 1520 1524
1445 1444 1443 1443 1442 1442 1442 1442 1442 1443 1443 1444 1445 1446 1447 1449 1451 1453 1455 1457 1457 1459 1462 1465 1467 1471 1475 1478 1481 1485 1489 1493 1498 1503 1507 1512 1516 1520
1439 1437 1436 1435 1435 1434 1434 1434 1434 1435 1436 1437 1437 1438 1439 1441 1444 1446 1449 1451 1452 1454 1456 1460 1463 1467 1471 1475 1478 1482 1485 1489 1494 1499 1503 1508 1512 1516
1433 1432 1431 1429 1427 1427 1426 1426 1426 1427 1428 1429 1430 1431 1432 1434 1436 1438 1441 1445 1447 1449 1451 1455 1458 1462 1467 1470 1475 1478 1482 1486 1490 1495 1500 1505 1509 1513
1426 1425 1424 1422 1420 1419 1418 1418 1418 1419 1421 1422 1423 1424 1425 1427 1429 1432 1435 1438 1441 1444 1447 1450 1453 1457 1462 1466 1470 1475 1479 1484 1488 1492 1496 1501 1506 1510
1420 1418 1417 1415 1413 1412 1410 1410 1410 1411 1412 1413 1414 1416 1418 1420 1423 1425 1428 1431 1435 1438 1441 1445 1449 1453 1458 1462 1465 1470 1475 1480 1485 1489 1494 1499 1503 1508
1413 1411 1409 1407 1405 1404 1403 1402 1401 1402 1403 1405 1406 1408 1411 1413 1415 1418 1421 1424 1428 1432 1435 1439 1444 1448 1453 1458 1462 1466 1472 1476 1481 1486 1491 1496 1501 1506
1407 1405 1403 1401 1399 1397 1396 1395 1394 1394 1395 1396 1398 1400 1402 1405 1407 1411 1414 1418 1421 1425 1429 1434 1439 1444 1449 1453 1457 1462 1468 1473 1478 1483 1488 1493 1498 1502
1400 1398 1396 1394 1392 1390 1389 1387 1386 1386 1386 1388 1389 1392 1394 1397 1400 1403 1407 1410 1414 1419 1423 1427 1433 1438 1444 1449 1453 1458 1463 1469 1474 1480 1485 1490 1494 1499
1393 1391 1389 1387 1385 1384 1382 1381 1379 1379 1379 1380 1382 1384 1387 1390 1393 1396 1400 1404 1408 1413 1417 1422 1427 1432 1437 1442 1448 1454 1459 1464 1470 1476 1481 1487 1492 1496
1387 1385 1383 1381 1379 1377 1376 1374 1373 1373 1373 1373 1375 1377 1380 1383 1386 1389 1393 1397 1402 1407 1412 1416 1421 1426 1432 1438 1442 1449 1455 1460 1466 1472 1477 1483 1488 1492
1381 1379 1377 1375 1373 1371 1370 1369 1368 1367 1367 1367 1368 1370 1373 1376 1380 1383 1388 1392 1397 1401 1406 1410 1416 1423 1429 1435 1439 1444 1450 1457 1463 1468 1474 1478 1483 1488
1375 1373 1371 1369 1367 1366 1365 1364 1362 1362 1362 1362 1363 1365 1368 1371 1374 1378 1382 1386 1391 1396 1402 1407 1412 1418 1423 1429 1434 1439 1445 1451 1458 1464 1470 1475 1479 1484
1369 1367 1365 1364 1362 1361 1360 1359 1358 1358 1358 1358 1359 1360 1362 1366 1369 1373 1377 1382 1386 1392 1397 1402 1407 1413 1419 1425 1430 1435 1440 1446 1453 1459 1466 1471 1476 1482